Time,TemperatureF,DewpointF,PressureIn,WindDirection,WindDirectionDegrees,WindSpeedMPH,WindSpeedGustMPH,Humidity,HourlyPrecipIn,Conditions,Clouds,dailyrainin,SoftwareType,DateUTC
2013-01-28 00:11:00,18.7,14.0,30.42,East,82,0.0,-999.0,83,-99.99,,,0.01,weatherlink.com 1.10,2013-01-28 05:11:00,
2013-01-28 00:56:00,21.0,15.0,30.39,ESE,109,0.0,-999.0,79,-99.99,,,0.01,weatherlink.com 1.10,2013-01-28 05:56:00,
2013-01-28 01:11:00,21.3,15.0,30.38,East,86,0.0,-999.0,78,-99.99,,,0.01,weatherlink.com 1.10,2013-01-28 06:11:00,
2013-01-28 01:26:00,21.3,15.0,30.37,NE,40,0.0,-999.0,78,-99.99,,,0.01,weatherlink.com 1.10,2013-01-28 06:26:00,
2013-01-28 01:41:00,20.7,15.0,30.37,NE,53,1.0,-999.0,78,-99.99,,,0.01,weatherlink.com 1.10,2013-01-28 06:41:00,
2013-01-28 01:56:00,20.6,15.0,30.37,ESE,105,0.0,-999.0,79,-99.99,,,0.01,weatherlink.com 1.10,2013-01-28 06:56:00,
2013-01-28 02:11:00,20.5,15.0,30.36,SE,142,0.0,-999.0,79,-99.99,,,0.01,weatherlink.com 1.10,2013-01-28 07:11:00,
2013-01-28 02:41:00,20.3,15.0,30.35,SE,136,2.0,-999.0,79,-99.99,,,0.01,weatherlink.com 1.10,2013-01-28 07:41:00,
2013-01-28 02:56:00,20.4,15.0,30.34,SE,134,0.0,-999.0,80,-99.99,,,0.01,weatherlink.com 1.10,2013-01-28 07:56:00,
2013-01-28 03:11:00,21.1,16.0,30.34,SE,132,0.0,-999.0,81,-99.99,,,0.01,weatherlink.com 1.10,2013-01-28 08:11:00,
2013-01-28 03:26:00,21.3,16.0,30.33,SE,131,0.0,-999.0,81,-99.99,,,0.01,weatherlink.com 1.10,2013-01-28 08:26:00,
2013-01-28 03:41:00,21.6,17.0,30.32,SE,125,0.0,-999.0,81,-99.99,,,0.01,weatherlink.com 1.10,2013-01-28 08:41:00,
2013-01-28 03:56:00,22.1,17.0,30.31,East,81,0.0,-999.0,81,-99.99,,,0.01,weatherlink.com 1.10,2013-01-28 08:56:00,
2013-01-28 04:27:00,23.5,18.0,30.29,NE,42,0.0,-999.0,79,-99.99,,,0.01,weatherlink.com 1.10,2013-01-28 09:27:00,
2013-01-28 04:42:00,24.2,19.0,30.29,NE,43,0.0,-999.0,79,-99.99,,,0.01,weatherlink.com 1.10,2013-01-28 09:42:00,
2013-01-28 04:57:00,24.8,19.0,30.28,NE,43,0.0,-999.0,79,-99.99,,,0.01,weatherlink.com 1.10,2013-01-28 09:57:00,
2013-01-28 05:12:00,25.4,19.0,30.28,NE,51,0.0,-999.0,78,-99.99,,,0.01,weatherlink.com 1.10,2013-01-28 10:12:00,
2013-01-28 05:57:00,25.7,19.0,30.28,NE,54,0.0,-999.0,76,-99.99,,,0.01,weatherlink.com 1.10,2013-01-28 10:57:00,
2013-01-28 06:12:00,25.2,19.0,30.27,NE,53,0.0,-999.0,76,-99.99,,,0.01,weatherlink.com 1.10,2013-01-28 11:12:00,
2013-01-28 06:27:00,24.7,19.0,30.26,ENE,63,0.0,-999.0,78,-99.99,,,0.01,weatherlink.com 1.10,2013-01-28 11:27:00,
2013-01-28 06:57:00,23.8,18.0,30.24,ESE,109,0.0,-999.0,79,-99.99,,,0.01,weatherlink.com 1.10,2013-01-28 11:57:00,
2013-01-28 07:12:00,23.9,19.0,30.23,ENE,74,0.0,-999.0,80,-99.99,,,0.01,weatherlink.com 1.10,2013-01-28 12:12:00,
2013-01-28 07:42:00,25.2,20.0,30.21,West,267,3.0,-999.0,80,-99.99,,,0.01,weatherlink.com 1.10,2013-01-28 12:42:00,
2013-01-28 07:57:00,27.7,23.0,30.21,South,190,4.0,-999.0,82,-99.99,,,0.01,weatherlink.com 1.10,2013-01-28 12:57:00,
2013-01-28 08:12:00,27.4,24.0,30.19,South,186,5.0,-999.0,86,-99.99,,,0.01,weatherlink.com 1.10,2013-01-28 13:12:00,
2013-01-28 08:27:00,27.2,24.0,30.18,South,182,2.0,-999.0,88,-99.99,,,0.01,weatherlink.com 1.10,2013-01-28 13:27:00,
2013-01-28 08:57:00,27.3,25.0,30.16,ESE,117,0.0,-999.0,90,-99.99,,,0.01,weatherlink.com 1.10,2013-01-28 13:57:00,
2013-01-28 09:27:00,28.5,27.0,30.14,SSE,166,1.0,-999.0,92,-99.99,,,0.01,weatherlink.com 1.10,2013-01-28 14:27:00,
2013-01-28 09:57:00,29.1,27.0,30.12,ESE,121,0.0,-999.0,92,-99.99,,,0.01,weatherlink.com 1.10,2013-01-28 14:57:00,
2013-01-28 10:12:00,29.6,28.0,30.11,ESE,123,0.0,-999.0,92,-99.99,,,0.01,weatherlink.com 1.10,2013-01-28 15:12:00,
2013-01-28 10:28:00,30.6,28.0,30.10,South,186,3.0,-999.0,91,-99.99,,,0.01,weatherlink.com 1.10,2013-01-28 15:28:00,
2013-01-28 10:43:00,31.2,29.0,30.09,SSE,165,0.0,-999.0,90,-99.99,,,0.01,weatherlink.com 1.10,2013-01-28 15:43:00,
2013-01-28 10:58:00,31.8,29.0,30.07,SSE,151,0.0,-999.0,90,-99.99,,,0.01,weatherlink.com 1.10,2013-01-28 15:58:00,
2013-01-28 11:28:00,32.9,30.0,30.05,SW,223,0.0,-999.0,87,-99.99,,,0.01,weatherlink.com 1.10,2013-01-28 16:28:00,
2013-01-28 11:43:00,33.0,30.0,30.05,SSE,166,0.0,-999.0,87,-99.99,,,0.01,weatherlink.com 1.10,2013-01-28 16:43:00,
2013-01-28 11:58:00,33.4,30.0,30.02,SSE,165,2.0,-999.0,87,-99.99,,,0.01,weatherlink.com 1.10,2013-01-28 16:58:00,
2013-01-28 12:13:00,33.6,30.0,30.02,SSE,157,1.0,-999.0,87,-99.99,,,0.01,weatherlink.com 1.10,2013-01-28 17:13:00,
2013-01-28 12:28:00,34.1,31.0,30.00,South,179,0.0,-999.0,88,-99.99,,,0.01,weatherlink.com 1.10,2013-01-28 17:28:00,
2013-01-28 12:43:00,34.4,31.0,30.00,WSW,240,3.0,-999.0,87,-99.99,,,0.01,weatherlink.com 1.10,2013-01-28 17:43:00,
2013-01-28 12:58:00,34.3,31.0,29.99,SSW,204,7.0,-999.0,89,-99.99,,,0.01,weatherlink.com 1.10,2013-01-28 17:58:00,
2013-01-28 13:13:00,34.3,32.0,29.97,SSW,202,4.0,-999.0,90,-99.99,,,0.01,weatherlink.com 1.10,2013-01-28 18:13:00,
2013-01-28 13:28:00,34.3,32.0,29.96,South,191,3.0,-999.0,92,-99.99,,,0.02,weatherlink.com 1.10,2013-01-28 18:28:00,
2013-01-28 13:43:00,34.6,33.0,29.96,SSW,212,2.0,-999.0,92,-99.99,,,0.02,weatherlink.com 1.10,2013-01-28 18:43:00,
2013-01-28 13:58:00,35.1,33.0,29.95,SW,220,3.0,-999.0,92,-99.99,,,0.00,weatherlink.com 1.10,2013-01-28 18:58:00,
2013-01-28 14:13:00,35.5,33.0,29.93,SSW,206,7.0,-999.0,91,-99.99,,,0.00,weatherlink.com 1.10,2013-01-28 19:13:00,
2013-01-28 14:28:00,36.0,33.0,29.93,SSW,202,6.0,-999.0,90,-99.99,,,0.00,weatherlink.com 1.10,2013-01-28 19:28:00,
2013-01-28 14:43:00,36.4,34.0,29.92,West,271,3.0,-999.0,89,-99.99,,,0.00,weatherlink.com 1.10,2013-01-28 19:43:00,
2013-01-28 14:58:00,36.7,34.0,29.91,SW,234,7.0,-999.0,89,-99.99,,,0.00,weatherlink.com 1.10,2013-01-28 19:58:00,
2013-01-28 15:13:00,37.0,34.0,29.91,SW,214,6.0,-999.0,89,-99.99,,,0.00,weatherlink.com 1.10,2013-01-28 20:13:00,
2013-01-28 15:29:00,37.4,34.0,29.90,SW,235,5.0,-999.0,88,-99.99,,,0.00,weatherlink.com 1.10,2013-01-28 20:29:00,
2013-01-28 15:44:00,37.6,34.0,29.90,SW,235,13.0,-999.0,87,-99.99,,,0.00,weatherlink.com 1.10,2013-01-28 20:44:00,
2013-01-28 15:59:00,37.8,34.0,29.89,WSW,244,7.0,-999.0,87,-99.99,,,0.00,weatherlink.com 1.10,2013-01-28 20:59:00,
2013-01-28 16:14:00,37.9,34.0,29.89,South,175,5.0,-999.0,87,-99.99,,,0.00,weatherlink.com 1.10,2013-01-28 21:14:00,
2013-01-28 16:29:00,38.1,35.0,29.89,WSW,238,3.0,-999.0,88,-99.99,,,0.00,weatherlink.com 1.10,2013-01-28 21:29:00,
2013-01-28 16:44:00,37.8,35.0,29.89,WSW,248,1.0,-999.0,89,-99.99,,,0.02,weatherlink.com 1.10,2013-01-28 21:44:00,
2013-01-28 16:59:00,37.4,35.0,29.89,SW,236,9.0,-999.0,91,-99.99,,,0.03,weatherlink.com 1.10,2013-01-28 21:59:00,
2013-01-28 17:14:00,37.3,35.0,29.88,SSW,192,8.0,-999.0,92,-99.99,,,0.04,weatherlink.com 1.10,2013-01-28 22:14:00,
2013-01-28 17:44:00,37.6,36.0,29.88,WSW,248,7.0,-999.0,92,-99.99,,,0.05,weatherlink.com 1.10,2013-01-28 22:44:00,
2013-01-28 17:59:00,37.8,36.0,29.88,SW,221,1.0,-999.0,92,-99.99,,,0.05,weatherlink.com 1.10,2013-01-28 22:59:00,
2013-01-28 18:29:00,38.4,36.0,29.89,SW,221,4.0,-999.0,92,-99.99,,,0.05,weatherlink.com 1.10,2013-01-28 23:29:00,
2013-01-28 18:44:00,38.4,36.0,29.89,West,269,4.0,-999.0,92,-99.99,,,0.05,weatherlink.com 1.10,2013-01-28 23:44:00,
2013-01-28 18:59:00,38.5,37.0,29.89,WSW,239,10.0,-999.0,93,-99.99,,,0.06,weatherlink.com 1.10,2013-01-28 23:59:00,
2013-01-28 19:14:00,38.5,37.0,29.88,WSW,251,1.0,-999.0,93,-99.99,,,0.06,weatherlink.com 1.10,2013-01-29 00:14:00,
2013-01-28 19:29:00,38.8,37.0,29.88,WSW,238,9.0,-999.0,94,-99.99,,,0.06,weatherlink.com 1.10,2013-01-29 00:29:00,
2013-01-28 19:44:00,39.1,38.0,29.88,SSW,208,4.0,-999.0,94,-99.99,,,0.06,weatherlink.com 1.10,2013-01-29 00:44:00,
2013-01-28 19:59:00,39.3,38.0,29.88,West,281,3.0,-999.0,94,-99.99,,,0.06,weatherlink.com 1.10,2013-01-29 00:59:00,
2013-01-28 20:14:00,39.6,38.0,29.88,SW,221,4.0,-999.0,94,-99.99,,,0.06,weatherlink.com 1.10,2013-01-29 01:14:00,
2013-01-28 20:29:00,39.9,38.0,29.89,WNW,294,4.0,-999.0,94,-99.99,,,0.07,weatherlink.com 1.10,2013-01-29 01:29:00,
2013-01-28 21:14:00,39.5,38.0,29.90,SW,233,2.0,-999.0,95,-99.99,,,0.07,weatherlink.com 1.10,2013-01-29 02:14:00,
2013-01-28 21:29:00,39.2,38.0,29.90,NNW,340,3.0,-999.0,95,-99.99,,,0.08,weatherlink.com 1.10,2013-01-29 02:29:00,
2013-01-28 21:44:00,39.5,39.0,29.90,West,265,1.0,-999.0,96,-99.99,,,0.08,weatherlink.com 1.10,2013-01-29 02:44:00,
2013-01-28 21:59:00,39.5,39.0,29.91,WSW,252,1.0,-999.0,96,-99.99,,,0.09,weatherlink.com 1.10,2013-01-29 02:59:00,
2013-01-28 22:14:00,39.6,39.0,29.91,West,269,3.0,-999.0,96,-99.99,,,0.09,weatherlink.com 1.10,2013-01-29 03:14:00,
2013-01-28 22:29:00,39.6,39.0,29.92,West,265,2.0,-999.0,97,-99.99,,,0.10,weatherlink.com 1.10,2013-01-29 03:29:00,
2013-01-28 22:44:00,39.6,39.0,29.93,West,265,2.0,-999.0,97,-99.99,,,0.11,weatherlink.com 1.10,2013-01-29 03:44:00,
2013-01-28 22:59:00,39.6,39.0,29.93,West,271,2.0,-999.0,97,-99.99,,,0.11,weatherlink.com 1.10,2013-01-29 03:59:00,
2013-01-28 23:14:00,39.7,39.0,29.94,West,265,0.0,-999.0,97,-99.99,,,0.11,weatherlink.com 1.10,2013-01-29 04:14:00,
2013-01-28 23:29:00,39.6,39.0,29.94,West,264,1.0,-999.0,97,-99.99,,,0.12,weatherlink.com 1.10,2013-01-29 04:29:00,
2013-01-28 23:44:00,39.6,39.0,29.95,West,265,3.0,-999.0,97,-99.99,,,0.12,weatherlink.com 1.10,2013-01-29 04:44:00,